Starlink 11367

operational
NORAD ID: 62097 Int'l Des: 2024-220 Owner: SPXS Country: US Constellation: starlink
LEOCIRCULAR

关于 Starlink 11367

正在加载描述...

实时位置

正在加载3D地球...

即将过境

高度历史

Altitude vs Time

uPlot chart will show altitude changes over time

两行轨道根数

1 62097U 24220K 26036.94375388 .00297083 00000-0 22297-2 0 9991
2 62097 42.9993 234.1329 0001925 275.4031 84.6617 15.70917649 70069
Epoch: Feb 5, 2026 • Age: 8 hours

当前状态

高度 357.9 km
速度 7.70 km/s
星下点 34.07°N, 44.21°E
发射日期 Nov 25, 2024
运行时间 1.1 years
类型 internet

技术详情

分类 Payload
质量 960.00 kg
干质量 910.00 kg
总质量 960.00 kg
长度 0.30 m
直径 4.10 m
跨度 29.00 m
形状 Box + pan
制造商 SPXS
平台类型 Starlink V2MD
阶段状态 In Orbit
所有者/国家 SPXS/US

大型星座

Loading constellations...